This is the latest recevied weather packets stored in our database for station/object KC8JWT. If no packets are shown the sender has not sent any weather packets the latest 10 day(s).
| Time | Temp. | Humidity | Pressure | Rain* | Wind** | Luminosity | Snow |
|---|---|---|---|---|---|---|---|
| 1778157866 | 10.56° C | 71% | 1014.8 hPa | 0 mm | - | 273 W/m² | - |
| 1778157565 | 10.56° C | 69% | 1014.7 hPa | 0 mm | - | 248 W/m² | - |
| 1778157262 | 10.56° C | 72% | 1015.1 hPa | 0 mm | - | 244 W/m² | - |
| 1778156958 | 10.56° C | 73% | 1014.6 hPa | 0 mm | - | 60 W/m² | - |
| 1778156653 | 10° C | 73% | 1014.8 hPa | 0 mm | - | 206 W/m² | - |
| 1778156350 | 10° C | 74% | 1014.7 hPa | 0 mm | - | 192 W/m² | - |
| 1778156045 | 10° C | 75% | 1014.9 hPa | 0 mm | - | 181 W/m² | - |
| 1778155742 | 10° C | 74% | 1014.5 hPa | 0 mm | - | 167 W/m² | - |
| 1778155438 | 10° C | 75% | 1014.5 hPa | 0 mm | - | 150 W/m² | - |
| 1778155134 | 10.56° C | 74% | 1014.5 hPa | 0 mm | - | 131 W/m² | - |
| 1778154830 | 10.56° C | 75% | 1014.5 hPa | 0 mm | - | 105 W/m² | - |
| 1778154526 | 10° C | 76% | 1014.6 hPa | 0 mm | - | 87 W/m² | - |
| 1778154224 | 10° C | 77% | 1014.3 hPa | 0 mm | - | 70 W/m² | - |
| 1778153921 | 9.44° C | 77% | 1014.8 hPa | 0 mm | - | 61 W/m² | - |
| 1778153618 | 8.89° C | 78% | 1014.5 hPa | 0 mm | - | 56 W/m² | - |
| 1778153315 | 8.89° C | 78% | 1014.5 hPa | 0 mm | - | 52 W/m² | - |
| 1778153012 | 7.78° C | 80% | 1014.5 hPa | 0 mm | - | 49 W/m² | - |
| 1778152710 | 8.33° C | 79% | 1014.3 hPa | 0 mm | - | 45 W/m² | - |
| 1778152406 | 7.78° C | 80% | 1014.4 hPa | 0 mm | - | 41 W/m² | - |
| 1778152102 | 7.22° C | 82% | 1014.4 hPa | 0 mm | - | 37 W/m² | - |
| 1778151799 | 6.67° C | 85% | 1014.3 hPa | 0 mm | - | 32 W/m² | - |
| 1778151496 | 5.56° C | 89% | 1014.2 hPa | 0 mm | - | 24 W/m² | - |
| 1778151192 | 5.56° C | 90% | 1014.1 hPa | 0 mm | - | 22 W/m² | - |
| 1778150889 | 5° C | 91% | 1014.3 hPa | 0 mm | - | 16 W/m² | - |
| 1778150586 | 5° C | 92% | 1014.3 hPa | 0 mm | - | 14 W/m² | - |
* Rain latest hour (hover to see other rain measurements)
** Current wind speed in m/s (hover to see current wind gust speed)